Volver al catálogo

STARLINK-6037

ActivoComunicacionesVLEO
NORAD 56461·PAYLOAD·🇺🇸 United States

Lanzado May 10, 2023 desde Vandenberg Space Force Base

Loading…

Próximos Pases (próximas 24 horas)

TLE

ActualizadoSource: CelesTrak SupGP

Época: Sep 15, 2026, 01:44 UTC

1 56461C 23064P   26258.07270833 -.00023893  00000+0 -20026-2 0  2586
2 56461  70.0031  26.7954 0003049 270.2092 236.2076 14.98336938    17

Sigue STARLINK-6037 en tiempo real con AllMySat

Download on the App Store